Regional Weather Roundup
Issued by NWS

Home | Current Version | Previous Version | Text Only | Print | Product List | Glossary On
Versions: 1 2 3 4 5 6 7 8 9 10 11 12 13 14 15 16 17 18 19 20 21 22 23 24 25 26 27 28 29 30 31 32 33 34 35 36 37 38 39 40 41 42 43 44 45 46 47 48 49 50
000
ASUS44 KEWX 021410
RWRTX
SOUTH TEXAS REGIONAL WEATHER ROUNDUP
NATIONAL WEATHER SERVICE AUSTIN/SAN ANTONIO TX
900 AM CDT TUE SEP 02 2014

NOTE: "FAIR" INDICATED FEW OR NO CLOUDS BELOW 12,000 FEET WITH NO
SIGNIFICANT WEATHER AND/OR OBSTRUCTIONS TO VISIBILITY.

* - THESE STATIONS ARE NOT NWS OR FAA STATIONS...AND ARE NOT SUBJECT
    TO NWS AND FAA QUALITY CONTROL.

TXZ171-172-183>190-021500-
TEXAS HILL COUNTRY AND EDWARDS PLATEAU

CITY           SKY/WX    TMP DP  RH WIND       PRES   REMARKS
JUNCTION       MOSUNNY   78  68  71 S10G18    29.98S
*LLANO         PTSUNNY   81  72  74 S7        30.00S
BURNET         PTSUNNY   78  72  81 S8        30.00R
*HORSESHOE BAY NOT AVBL
*KERRVILLE     PTSUNNY   76  73  87 S8        30.00R
*FREDERICKSBRG MOSUNNY   77  69  76 S10       29.99S
*ROCKSPRINGS   CLOUDY    75  70  83 SE14      30.03R
*BOERNE STAGE  CLOUDY    77  70  78 S7        30.01R
*CASTROVILLE   PTSUNNY   81  72  75 S8        29.98R
HONDO          PTSUNNY   81  73  76 S10       29.98R
*UVALDE        PTSUNNY   79  74  84 SE9       29.96S
DEL RIO        CLOUDY    80  72  76 SE13      29.92S
LAUGHLIN AFB   PTSUNNY   79  72  78 SE12      29.94R
CARRIZO SPRGS  MOSUNNY   81  73  78 SE9G16    29.92R
$$

TXZ173-191>194-202-209-217>225-228-021500-
CENTRAL AND SOUTH CENTRAL TEXAS

CITY           SKY/WX    TMP DP  RH WIND       PRES   REMARKS
GEORGETOWN     CLOUDY    81  73  78 S10       29.98R
AUSTIN/BERGSTM PTSUNNY   82  76  81 S10       29.96R
AUSTIN/MABRY   PTSUNNY   82  75  79 S6        29.97R
*AUSTIN/EXEC   PTSUNNY   81  75  83 S8        29.97R
*LAGO VISTA    CLOUDY    79  73  82 S10       29.99R
SAN MARCOS     PTSUNNY   81  72  74 SE8       29.98S
NEW BRAUNFELS  PTSUNNY   79  76  90 S5        29.95S
RANDOLPH AFB   MOSUNNY   82  75  80 S9        29.97R
PT SAN ANTONIO MOSUNNY   82  75  79 SE10      29.95S
SAN ANTONIO    MOSUNNY   82  75  79 S7        29.97R
STINSON FIELD  PTSUNNY   82  75  79 SE6       29.95R
*PLEASANTON    CLOUDY    81  75  82 E5        29.95R
*LA GRANGE     MOSUNNY   82  79  90 SE3       29.95R HX  91
*GIDDINGS      CLOUDY    80  76  87 S6        30.01R
*GONZALES      MOSUNNY   82  78  87 SE6       29.96R HX  92
$$

TXZ163>164-176>182-195>201-210>213-226-227-235-021500-
SOUTHEAST TEXAS

CITY           SKY/WX    TMP DP  RH WIND       PRES   REMARKS
COLLEGE STN    MOSUNNY   81  76  84 S13       29.97S
*BRYAN         PTSUNNY   82  76  84 S9        29.97R
*CALDWELL      PTSUNNY   79  79 100 SE10      30.00S
*CROCKETT      MOSUNNY   82  81  94 SE5       30.02R HX  95
*BRENHAM       PTSUNNY   80  79  96 S9        29.98R
HUNTSVILLE     SUNNY     82  76  81 S10       29.99R
CONROE         SUNNY     82  77  84 S9        29.99R HX  90
HOUSTON BUSH   MOSUNNY   84  77  79 S10       29.97R HX  94
HOUSTON HOBBY  MOSUNNY   83  75  77 S7        29.97R HX  90
*HOUSTON SW AP SUNNY     83  81  93 SE12      29.98R HX  97
PEARLAND       SUNNY     81  75  82 SE3       29.99R
HOUSTON HOOKS  SUNNY     84  77  79 S5        29.98R HX  94
ELLINGTON FLD  MOSUNNY   84  79  84 SE7       29.98R HX  96
SUGAR LAND     PTSUNNY   85  77  77 S15       29.97R HX  95
*HOUSTON EXEC  SUNNY     82  82 100 SE10      29.98R HX  97
*CLEVELAND MUN SUNNY     82  79  91 S6        30.00R HX  91
*WHARTON       SUNNY     82  77  83 SE8       29.97R HX  91
$$

TXZ214>216-236>238-021500-
THE UPPER TEXAS COAST

CITY           SKY/WX    TMP DP  RH WIND       PRES   REMARKS
*ORANGE        MOSUNNY   84  78  81 SE10      30.01R HX  95
PORT ARTHUR    MOSUNNY   83  77  82 S13       30.00R HX  92
GALVESTON      MOSUNNY   87  76  69 S16       29.98R HX  97
ANGLETON       MOSUNNY   84  77  79 S12       29.97R HX  94
*BAY CITY      SUNNY     86  79  79 SE8       29.96R HX  99
PALACIOS       SUNNY     86  76  71 SE15      29.95R HX  96
$$

TXZ229>234-239>247-021500-
TEXAS COASTAL BEND AND RIO GRANDE PLAINS

CITY           SKY/WX    TMP DP  RH WIND       PRES   REMARKS
VICTORIA       SUNNY     85  78  80 SE12      29.95R HX  96
*BEEVILLE      SUNNY     82  78  89 SE6       29.94R HX  92
ROCKPORT       MOSUNNY   87  77  72 SE16      29.92S HX  99
*PORT ARANSAS  MOSUNNY   85  76  74 SE10G17   29.93R HX  95
*PORT LAVACA   SUNNY     84  77  80 SE12      29.95R HX  94
*INGLESIDE     PTSUNNY   87  76  68 SE15G24   29.92R HX  98
CORPUS CHRISTI MOSUNNY   85  77  77 SE12      29.92R HX  95
CORPUS NAS     MOSUNNY   86  78  77 SE15      29.93R HX  98
*ROBSTOWN      SUNNY     86  77  75 SE9       29.92S HX  98
ALICE          SUNNY     84  78  82 SE8       29.92R HX  95
KINGSVILLE NAS PTSUNNY   86  80  82 E8        29.92R HX 101
COTULLA        MOSUNNY   83  74  74 SE12      29.93R
*FAITH RANCH   SUNNY     79  73  83 E9        29.92S
LAREDO         SUNNY     84  75  74 SE12      29.94R HX  91
$$

TXZ248>255-021500-
DEEP SOUTH TEXAS

CITY           SKY/WX    TMP DP  RH WIND       PRES   REMARKS
BROWNSVILLE    SUNNY     85  78  80 E8        29.89R HX  96
PORT ISABEL    SUNNY     86  75  69 SE12      29.89R HX  95
*SOUTH PADRE   SUNNY     86  79  79 E8        29.89R HX  99
HARLINGEN      SUNNY     85  78  80 E10       29.88S HX  96
*HEBBRONVILLE  PTSUNNY   80  76  87 SE8       29.94R
MCALLEN        MOSUNNY   84  77  79 E9        29.90R HX  94
*WESLACO       NOT AVBL
FALFURRIAS     SUNNY     73  67  80 E6        29.91S
EDINBURG       MOSUNNY   85  76  76 E6        29.90S HX  94
*ZAPATA        MOSUNNY   83  74  75 SE9       29.91R HX  90
$$

TXZ213>215-236>238-242>244-246-247-251-254-255-021500-
CMAN STATIONS

STATION/POSITION TIME  TEMP    WIND        PRES    WAVE
                       AIR SEA DIR/SP/G            HT/PER
                 (UTC) (F)     (DEG/KT/KT) (MB)    (FT/S)
SABINE PASS      1400   83 84  200/  7/ 11 1016.1
SEA RIM ST PARK  1400   84     150/ 11/ 12 1016.4
NORTH JETTY/GLS  1400   85 84  190/ 14/ 17   N/A
EAGLE POINT      1400   85 84  180/ 13/ 16 1015.1
MORGANS POINT    1400   83     180/  6/  9 1015.0
MISSION/ARANSAS  1300   82     130/ 12     1014.0
PORT O`CONNOR    1400          130/ 15/ 17   N/A
PORT ARANSAS     1400   85 85  120/ 16/ 18 1014.0
MALAQUITE BEACH  1400   84 84  110/ 12/ 15 1012.6
BAFFIN BAY       1400   85 82  120/ 11/ 15 1012.9
PORT ISABEL      1400   84 83  110/  5/ 12 1012.4
$$

GMZ080-GMZ150>470-021500-
OFFSHORE BUOY REPORTS

STATION/POSITION TIME  TEMP    WIND        PRES    WAVE
                       AIR SEA DIR/SP/G            HT/PER
                 (UTC) (F)     (DEG/KT/KT) (MB)    (FT/S)
20 E GALVESTON   1400   85 85  170/ 16/ 19 1014.9    4/ 6
90 E PT ARANSAS  1400   85 85  140/ 16/ 19 1014.4    5/ 6
35 NE PT MANSFLD 1400   85 85  130/ 17/ 21 1012.1    5/ 7
200 E PT ISABEL  1400   81 85  120/ 14/ 16 1014.1    7/ 8
$$



USA.gov is the U.S. government's official web portal to all federal, state and local government web resources and services.